ZACUBE-1 (TSHEPISOSAT)

Last updated on Mon Nov 03 2025 00:03:21 GMT+0000 (Coordinated Universal Time)

1 39417U 13066B 25306.40028595 .00005819 00000+0 48391-3 0 9999 2 39417 97.7972 262.9198 0041380 285.5811 74.0845 14.98429556646737
UTC large
Height (km)
Speed (km/s)
/
Latitude / Longitude
Inclination (degrees)
Orbital Period (minutes)
Azimuth
Elevation
Range (km)
Doppler Factor

Next 0 passes for location: London (51.5072 / 0.1276)

Sorry there are no passes over London.